Regional Weather Roundup
Issued by NWS Green Bay, WI

Home | Current Version | Previous Version | Graphics & Text | Print | Product List | Glossary Off
Versions: 1 2 3 4 5 6 7 8 9 10 11 12 13 14 15 16 17 18 19 20 21 22 23 24 25 26 27 28 29 30 31 32 33 34 35 36 37 38 39 40 41 42 43 44 45 46 47 48 49 50

000
ASUS43 KGRB 281410
RWRGRB

NORTH-CENTRAL AND NORTHEAST WISCONSIN REGIONAL WEATHER ROUNDUP
NATIONAL WEATHER SERVICE GREEN BAY WI
800 AM CST FRI NOV 28 2014

WIZ005-009-010>012-018-019-281500-
NORTH CENTRAL WISCONSIN

CITY           SKY/WX    TMP DP  RH WIND       PRES   REMARKS
IRONWOOD       CLOUDY     7   1  78 E3        30.05F
MANITOWISH WTR FLURRIES   5   1  83 SE5       30.05F WCI  -4
ARBOR VITAE    FLURRIES   9   5  83 SE6       30.06S WCI  -1
EAGLE RIVER    LGT SNOW   7   1  78 CALM      30.07F
LAND O LAKES   LGT SNOW   7   3  85 S5        30.07F WCI  -2
RHINELANDER    CLOUDY     6   2  83 SE5       30.08F WCI  -3
PHILLIPS       CLOUDY     8   5  87 SE6       30.05F WCI  -2
ANTIGO         FLURRIES   6   2  86 SE7       30.10S WCI  -6
TOMAHAWK       LGT SNOW   7   3  86 CALM      30.08F
MERRILL        FLURRIES   8   4  85 SE6       30.10F WCI  -2
$$

WIZ013-073-281500-
NORTHEAST WISCONSIN

CITY           SKY/WX    TMP DP  RH WIND       PRES   REMARKS
IRON MOUNTAIN  CLOUDY     7   2  80 SE3       30.13F
MARINETTE      CLOUDY    10   7  85 W3        30.20F
OCONTO         CLOUDY    11   7  83 S3        30.22F
$$

WIZ017-030-035>037-045-281500-
CENTRAL WISCONSIN

CITY           SKY/WX    TMP DP  RH WIND       PRES   REMARKS
MEDFORD        FLURRIES   8   4  83 SE6       30.06F WCI  -2
WAUSAU         CLOUDY     9   5  84 SE7       30.11S FOG     WCI  -2
MOSINEE        LGT SNOW   9   7  92 SE8       30.11F WCI  -4
MARSHFIELD     CLOUDY    11   6  81 SE9       30.09F WCI  -2
WISC RAPIDS    CLOUDY    11   6  81 SE9       30.14F WCI  -2
STEVENS POINT  CLOUDY     8   5  89 SE6       30.13F WCI  -3
WAUPACA        LGT SNOW  14   9  80 E6        30.18F WCI   5
SHAWANO        LGT SNOW  11   7  83 SE3       30.19F
CLINTONVILLE   LGT SNOW  10   7  85 SE3       30.18F
$$

WIZ038-039-048-051-281500-
FOX VALLEY

CITY           SKY/WX    TMP DP  RH WIND       PRES   REMARKS
NWS GREEN BAY  LGT SNOW  13   8  81 SE7       30.21F WCI   3
APPLETON       LGT SNOW  12   9  85 VRB6      30.19F WCI   3
OSHKOSH        SNOW      14   9  80 MISG      30.19F VSB 1/2
FOND DU LAC    LGT SNOW  15  10  80 S10       30.19F WCI   2
$$

WIZ022-050-052-281500-
EAST CENTRAL WISCONSIN

CITY           SKY/WX    TMP DP  RH WIND       PRES   REMARKS
STURGEON BAY   CLOUDY    12   3  67 S6        30.21F WCI   3
MANITOWOC      LGT SNOW  14   8  77 SW7       30.24F WCI   4
SHEBOYGAN      LGT SNOW  14   9  80 S6        30.22F VSB 1   WCI   5
$$

LMZ563-521-522-541>543-281500-
LAKESHORE

STATION/POSITION TIME  TEMP    WIND        PRES    VSBY  WAVE
                       AIR SEA DIR/SP/G                  HT/PER
                 (UTC) (F)     (DEG/KT/KT) (MB)    (MI)  (FT/S)
SHEBOYGAN LKSHOR 1400   16 34  230/ 12/ 13 1025.1F
KEWAUNEE LKSHORE 1400   13     240/  3/  8 1023.1R
TWO RIVERS CG    1300   13 34              1024.6   3 1/2  1
NORTHPORT PIER   1400   16     210/  2/  7 1023.7S
N MID LAKE BUOY  1400   22 42  240/ 10/ 14 1024.3F         1/ 3
STURGEON BAY CG  1300   13     250/  2     1026.0   3 1/2  1
CHAMBERS ISLAND  1400   17     190/  5/  9 1023.4S
MENOMINEE LKSHOR 1400   13     220/  4/  5 1023.9F
$$



USA.gov is the U.S. government's official web portal to all federal, state and local government web resources and services.